When you browse on this site, cookies collect data to enhance your experience and personalize the content and advertising you see.
Visit our Privacy Policy to learn more. By continuing to use the site, you agree to this use of cookies and data.
  • In United Kingdom
  • List of Countries
  • For 7 days
  • Water Temperature
  • Weather Map
  • Weather Widgets
  • user-avatar
    Login

    Hourly Weather Hizan

    Today, 25 August, Sunday

    Time Temperature Precipitation Wind Pressure Humidity
    00:00 +18°C° 0.3 mm 2 mps 627 mmHg 63%
    01:00 +17°C° 0 mm 2 mps 627 mmHg 63%
    02:00 +17°C° 0 mm 2 mps 627 mmHg 62%
    03:00 +17°C° 0 mm 2 mps 627 mmHg 62%
    04:00 +19°C° 0 mm 1 mps 627 mmHg 61%
    05:00 +19°C° 0 mm 1 mps 627 mmHg 59%
    06:00 +19°C° 0 mm 1 mps 627 mmHg 58%
    07:00 +22°C° 0 mm 1 mps 629 mmHg 48%
    08:00 +26°C° 0 mm 1 mps 630 mmHg 38%
    09:00 +29°C° 0 mm 1 mps 631 mmHg 29%
    10:00 +30°C° 0 mm 3 mps 631 mmHg 25%
    11:00 +33°C° 0 mm 4 mps 631 mmHg 21%
    12:00 +34°C° 0 mm 5 mps 631 mmHg 18%
    13:00 +34°C° 0 mm 5 mps 630 mmHg 17%
    14:00 +34°C° 0 mm 5 mps 630 mmHg 16%
    15:00 +35°C° 0 mm 6 mps 630 mmHg 16%
    16:00 +33°C° 0 mm 4 mps 630 mmHg 17%
    17:00 +31°C° 0 mm 3 mps 629 mmHg 18%
    18:00 +30°C° 0 mm 2 mps 628 mmHg 19%
    19:00 +27°C° 0 mm 2 mps 628 mmHg 28%
    20:00 +23°C° 0 mm 1 mps 627 mmHg 37%
    21:00 +20°C° 0 mm 1 mps 626 mmHg 46%
    22:00 +20°C° 0 mm 1 mps 626 mmHg 46%
    23:00 +20°C° 0 mm 1 mps 626 mmHg 46%

    Tomorrow, 26 August, Monday

    Time Temperature Precipitation Wind Pressure Humidity
    00:00 +20°C° 0 mm 1 mps 626 mmHg 46%
    01:00 +20°C° 0 mm 1 mps 626 mmHg 45%
    02:00 +19°C° 0 mm 1 mps 626 mmHg 44%
    03:00 +19°C° 0 mm 1 mps 626 mmHg 43%
    04:00 +19°C° 0 mm 1 mps 626 mmHg 41%
    05:00 +19°C° 0 mm 1 mps 627 mmHg 40%
    06:00 +18°C° 0 mm 2 mps 627 mmHg 38%
    07:00 +23°C° 0 mm 1 mps 628 mmHg 32%
    08:00 +27°C° 0 mm 1 mps 629 mmHg 26%
    09:00 +31°C° 0 mm 1 mps 630 mmHg 20%
    10:00 +32°C° 0 mm 2 mps 631 mmHg 18%
    11:00 +34°C° 0 mm 3 mps 631 mmHg 15%
    12:00 +35°C° 0 mm 5 mps 631 mmHg 13%
    13:00 +35°C° 0 mm 5 mps 630 mmHg 13%
    14:00 +35°C° 0 mm 6 mps 630 mmHg 12%
    15:00 +35°C° 0 mm 6 mps 630 mmHg 12%
    16:00 +34°C° 0 mm 5 mps 630 mmHg 14%
    17:00 +33°C° 0 mm 5 mps 629 mmHg 16%
    18:00 +32°C° 0 mm 4 mps 629 mmHg 18%
    19:00 +28°C° 0 mm 3 mps 628 mmHg 25%
    20:00 +24°C° 0 mm 2 mps 628 mmHg 32%
    21:00 +21°C° 0 mm 1 mps 627 mmHg 39%
    22:00 +20°C° 0 mm 1 mps 627 mmHg 43%
    23:00 +19°C° 0 mm 1 mps 627 mmHg 48%

    Day after tomorrow, 27 August, Tuesday

    Time Temperature Precipitation Wind Pressure Humidity
    00:00 +19°C° 0 mm 1 mps 626 mmHg 52%
    01:00 +18°C° 0 mm 1 mps 626 mmHg 51%
    02:00 +18°C° 0 mm 1 mps 626 mmHg 50%
    03:00 +17°C° 0 mm 2 mps 626 mmHg 49%
    04:00 +17°C° 0 mm 2 mps 626 mmHg 47%
    05:00 +17°C° 0 mm 2 mps 626 mmHg 44%
    06:00 +18°C° 0 mm 2 mps 626 mmHg 41%
    07:00 +23°C° 0 mm 2 mps 628 mmHg 33%
    08:00 +26°C° 0 mm 3 mps 629 mmHg 24%
    09:00 +30°C° 0 mm 4 mps 630 mmHg 16%
    10:00 +32°C° 0 mm 5 mps 630 mmHg 16%
    11:00 +33°C° 0 mm 7 mps 630 mmHg 15%
    12:00 +34°C° 0 mm 9 mps 630 mmHg 14%
    13:00 +34°C° 0 mm 10 mps 630 mmHg 14%
    14:00 +34°C° 0 mm 11 mps 629 mmHg 14%
    15:00 +34°C° 0 mm 12 mps 629 mmHg 14%
    16:00 +33°C° 0 mm 10 mps 628 mmHg 15%
    17:00 +32°C° 0 mm 9 mps 628 mmHg 17%
    18:00 +30°C° 0 mm 7 mps 627 mmHg 18%
    19:00 +26°C° 0 mm 6 mps 627 mmHg 24%
    20:00 +22°C° 0 mm 4 mps 626 mmHg 31%
    21:00 +19°C° 0 mm 2 mps 625 mmHg 37%
    22:00 +18°C° 0 mm 2 mps 625 mmHg 42%
    23:00 +17°C° 0 mm 2 mps 625 mmHg 46%

    28 August, Wednesday

    Time Temperature Precipitation Wind Pressure Humidity
    00:00 +17°C° 0 mm 2 mps 625 mmHg 51%
    01:00 +16°C° 0 mm 2 mps 625 mmHg 51%
    02:00 +16°C° 0 mm 2 mps 625 mmHg 51%
    03:00 +16°C° 0 mm 2 mps 625 mmHg 51%
    04:00 +16°C° 0 mm 2 mps 625 mmHg 49%
    05:00 +17°C° 0 mm 2 mps 626 mmHg 47%
    06:00 +17°C° 0 mm 2 mps 626 mmHg 45%
    07:00 +20°C° 0 mm 2 mps 627 mmHg 38%
    08:00 +25°C° 0 mm 2 mps 628 mmHg 30%
    09:00 +28°C° 0 mm 2 mps 629 mmHg 23%
    10:00 +30°C° 0 mm 3 mps 630 mmHg 19%
    11:00 +32°C° 0 mm 4 mps 630 mmHg 16%
    12:00 +34°C° 0 mm 6 mps 630 mmHg 12%
    13:00 +34°C° 0 mm 6 mps 630 mmHg 13%
    14:00 +34°C° 0 mm 7 mps 629 mmHg 13%
    15:00 +34°C° 0 mm 8 mps 629 mmHg 14%
    16:00 +33°C° 0 mm 6 mps 629 mmHg 16%
    17:00 +32°C° 0 mm 4 mps 628 mmHg 18%
    18:00 +29°C° 0 mm 2 mps 628 mmHg 20%
    19:00 +27°C° 0 mm 2 mps 627 mmHg 26%
    20:00 +24°C° 0 mm 2 mps 627 mmHg 33%
    21:00 +20°C° 0 mm 2 mps 626 mmHg 39%
    22:00 +20°C° 0 mm 1 mps 626 mmHg 45%
    23:00 +19°C° 0 mm 1 mps 626 mmHg 52%

    29 August, Thursday

    Time Temperature Precipitation Wind Pressure Humidity
    00:00 +18°C° 0 mm 1 mps 626 mmHg 58%
    01:00 +18°C° 0 mm 1 mps 626 mmHg 57%
    02:00 +18°C° 0 mm 1 mps 626 mmHg 57%
    03:00 +17°C° 0 mm 2 mps 626 mmHg 56%
    04:00 +17°C° 0 mm 2 mps 626 mmHg 54%
    05:00 +18°C° 0 mm 2 mps 626 mmHg 53%
    06:00 +18°C° 0 mm 2 mps 626 mmHg 51%
    07:00 +21°C° 0 mm 2 mps 627 mmHg 42%
    08:00 +26°C° 0 mm 2 mps 629 mmHg 33%
    09:00 +30°C° 0 mm 2 mps 630 mmHg 24%
    10:00 +32°C° 0 mm 4 mps 630 mmHg 22%
    11:00 +34°C° 0 mm 5 mps 630 mmHg 19%
    12:00 +35°C° 0 mm 7 mps 630 mmHg 16%
    13:00 +35°C° 0 mm 7 mps 630 mmHg 17%
    14:00 +35°C° 0 mm 8 mps 629 mmHg 17%
    15:00 +34°C° 0 mm 8 mps 629 mmHg 18%
    16:00 +34°C° 0 mm 8 mps 629 mmHg 18%
    17:00 +33°C° 0 mm 7 mps 629 mmHg 19%
    18:00 +32°C° 0 mm 6 mps 629 mmHg 19%
    19:00 +28°C° 0.1 mm 5 mps 628 mmHg 26%
    20:00 +25°C° 0.1 mm 4 mps 627 mmHg 32%
    21:00 +21°C° 0.1 mm 2 mps 627 mmHg 38%
    22:00 +21°C° 0.1 mm 3 mps 627 mmHg 39%
    23:00 +21°C° 0.1 mm 3 mps 626 mmHg 39%

    30 August, Friday

    Time Temperature Precipitation Wind Pressure Humidity
    00:00 +21°C° 0.1 mm 3 mps 626 mmHg 40%
    01:00 +20°C° 0.3 mm 3 mps 626 mmHg 45%
    02:00 +20°C° 0.3 mm 2 mps 626 mmHg 49%
    03:00 +19°C° 0.3 mm 2 mps 625 mmHg 54%
    04:00 +19°C° 0 mm 2 mps 625 mmHg 52%
    05:00 +19°C° 0 mm 2 mps 625 mmHg 51%
    06:00 +19°C° 0 mm 2 mps 625 mmHg 50%
    07:00 +22°C° 0 mm 3 mps 626 mmHg 41%
    08:00 +27°C° 0 mm 4 mps 627 mmHg 33%
    09:00 +30°C° 0 mm 5 mps 628 mmHg 24%
    10:00 +33°C° 0 mm 8 mps 628 mmHg 21%
    11:00 +34°C° 0 mm 10 mps 628 mmHg 17%
    12:00 +36°C° 0 mm 13 mps 629 mmHg 14%
    13:00 +36°C° 0 mm 13 mps 628 mmHg 14%
    14:00 +36°C° 0 mm 14 mps 628 mmHg 13%
    15:00 +37°C° 0 mm 15 mps 627 mmHg 13%
    16:00 +34°C° 0 mm 13 mps 626 mmHg 15%
    17:00 +32°C° 0 mm 11 mps 626 mmHg 18%
    18:00 +31°C° 0 mm 9 mps 625 mmHg 20%
    19:00 +27°C° 0 mm 7 mps 625 mmHg 24%
    20:00 +23°C° 0 mm 5 mps 625 mmHg 27%
    21:00 +20°C° 0 mm 3 mps 624 mmHg 31%
    22:00 +19°C° 0 mm 3 mps 624 mmHg 33%
    23:00 +19°C° 0 mm 2 mps 624 mmHg 36%
    Show more